Date String (YYYY-MM-DD hh:mm:ss) UTC,Instrument flags,absolute air pressure of the measurement (hPa),sample flow rate (lpm),inlet stack bypass flow (lpm),air temperature of the measurement (°C),ambient temperature measured by the external sensor (°C),aerosol sample conditioner tube jacket temperature (°C),OPC LED temperature (°C),internal box temperature (°C),relative humidity of the measurement (%),span deviation,mass concentration of particles derived from Lorenz-Mie calculation of OPC scattering (μg/m³),mass concentration of particles derived from Lorenz-Mie calculation of OPC scattering (μg/m³),mass concentration of particles derived from Lorenz-Mie calculation of OPC scattering (μg/m³)
DateTimeUTC,F1_M11,P_M11,Q1_M11,Q2_M11,T1_M11,T2_M11,T3_M11,T4_M11,T5_M11,U1_M11,ZSPAN_M11,X0_M11,X2_M11,X1_M11
2023-06-06 05:00:00,SystemResetWarning,0833.9,5.00,000.00,029.7,028.1,000.0,038.2,031.1,28.5,0000.0,0008.84,0004.65,0004.06
2023-06-06 05:01:00,SystemResetWarning,0833.9,5.01,000.00,029.7,028.1,000.0,038.2,031.1,28.4,0000.0,0008.76,0004.64,0004.09
2023-06-06 05:02:00,SystemResetWarning,0833.9,5.00,000.00,029.7,028.1,000.0,038.2,031.1,28.4,0000.0,0008.72,0004.67,0004.14
2023-06-06 05:03:00,SystemResetWarning,0833.8,4.99,000.00,029.7,028.1,000.0,038.2,031.1,28.5,0000.0,0008.68,0004.68,0004.17
2023-06-06 05:04:00,SystemResetWarning,0833.8,4.98,000.00,029.7,028.1,000.0,038.2,031.1,28.4,0000.0,0008.62,0004.70,0004.20
2023-06-06 05:05:00,SystemResetWarning,0833.9,5.01,000.00,029.7,028.1,000.0,038.2,031.1,28.3,0000.0,0008.66,0004.74,0004.22
2023-06-06 05:06:00,SystemResetWarning,0833.9,5.01,000.00,029.7,028.1,000.0,038.2,031.1,28.5,0000.0,0008.65,0004.77,0004.22
2023-06-06 05:07:00,SystemResetWarning,0833.9,5.00,000.00,029.7,028.1,000.0,038.2,031.1,29.3,0000.0,0008.65,0004.81,0004.23
2023-06-06 05:08:00,SystemResetWarning,0833.9,5.01,000.00,029.7,028.1,000.0,038.2,031.1,29.6,0000.0,0008.67,0004.83,0004.24
2023-06-06 05:09:00,SystemResetWarning,0833.9,5.00,000.00,029.7,028.1,000.0,038.2,031.1,29.5,0000.0,0008.21,0004.84,0004.24
2023-06-06 05:10:00,SystemResetWarning,0833.9,5.01,000.00,029.7,028.1,000.0,038.2,031.1,29.3,0000.0,0008.38,0004.82,0004.23
2023-06-06 05:11:00,SystemResetWarning,0833.9,5.00,000.00,029.7,028.1,000.0,038.2,031.1,29.3,0000.0,0009.05,0004.83,0004.23
2023-06-06 05:12:00,SystemResetWarning,0833.8,5.00,000.00,029.7,028.1,000.0,038.2,031.1,29.3,0000.0,0009.51,0004.85,0004.23
2023-06-06 05:13:00,SystemResetWarning,0833.8,4.99,000.00,029.7,028.1,000.0,038.2,031.1,29.3,0000.0,0009.95,0004.88,0004.22
2023-06-06 05:14:00,SystemResetWarning,0833.9,5.00,000.00,029.7,028.1,000.0,038.2,031.1,29.4,0000.0,0010.28,0004.90,0004.21
2023-06-06 05:15:00,SystemResetWarning,0834.0,4.99,000.00,029.7,028.1,000.0,038.3,031.1,29.5,0000.0,0010.33,0004.91,0004.20
2023-06-06 05:16:00,SystemResetWarning,0833.9,4.99,000.00,029.7,028.1,000.0,038.3,031.1,29.5,0000.0,0010.42,0004.94,0004.21
2023-06-06 05:17:00,SystemResetWarning,0833.8,5.01,000.00,029.7,028.1,000.0,038.3,031.1,29.5,0000.0,0010.50,0004.98,0004.24
2023-06-06 05:18:00,SystemResetWarning,0833.9,5.01,000.00,029.7,028.1,000.0,038.3,031.2,29.5,0000.0,0010.59,0005.03,0004.25
2023-06-06 05:19:00,SystemResetWarning,0833.8,5.00,000.00,029.8,028.1,000.0,038.3,031.2,29.4,0000.0,0010.59,0005.03,0004.24
2023-06-06 05:20:00,SystemResetWarning,0833.8,5.00,000.00,029.7,028.1,000.0,038.3,031.2,29.4,0000.0,0010.77,0005.08,0004.25
2023-06-06 05:21:00,SystemResetWarning,0833.8,4.99,000.00,029.8,028.1,000.0,038.3,031.2,29.3,0000.0,0010.52,0005.07,0004.25
2023-06-06 05:22:00,SystemResetWarning,0833.8,5.00,000.00,029.7,028.1,000.0,038.3,031.1,29.3,0000.0,0010.24,0005.06,0004.24
2023-06-06 05:23:00,SystemResetWarning,0833.8,4.99,000.00,029.7,028.1,000.0,038.3,031.1,29.2,0000.0,0009.73,0005.06,0004.24
2023-06-06 05:24:00,SystemResetWarning,0833.8,4.99,000.00,029.8,028.1,000.0,038.3,031.1,29.1,0000.0,0009.56,0005.07,0004.25
2023-06-06 05:25:00,SystemResetWarning,0833.8,4.99,000.00,029.8,028.1,000.0,038.3,031.2,29.0,0000.0,0009.25,0005.09,0004.27
2023-06-06 05:26:00,SystemResetWarning,0833.8,5.00,000.00,029.8,028.1,000.0,038.3,031.2,28.9,0000.0,0009.38,0005.13,0004.28
2023-06-06 05:27:00,SystemResetWarning,0833.7,5.00,000.00,029.8,028.1,000.0,038.3,031.1,28.8,0000.0,0009.29,0005.11,0004.30
2023-06-06 05:28:00,SystemResetWarning,0833.7,5.00,000.00,029.8,028.1,000.0,038.3,031.2,28.8,0000.0,0009.35,0005.11,0004.29
2023-06-06 05:29:00,SystemResetWarning,0833.7,5.00,000.00,029.8,028.1,000.0,038.3,031.2,28.8,0000.0,0009.69,0005.08,0004.28
2023-06-06 05:30:00,SystemResetWarning,0833.7,5.00,000.00,029.8,028.1,000.0,038.3,031.2,28.7,0000.0,0009.60,0005.06,0004.27
2023-06-06 05:31:00,SystemResetWarning,0833.7,5.00,000.00,029.8,028.1,000.0,038.3,031.2,28.7,0000.0,0009.48,0005.02,0004.26
2023-06-06 05:32:00,SystemResetWarning,0833.7,5.01,000.00,029.8,028.1,000.0,038.3,031.1,28.8,0000.0,0009.60,0005.06,0004.27
2023-06-06 05:33:00,SystemResetWarning,0833.7,5.01,000.00,029.8,028.1,000.0,038.3,031.2,28.8,0000.0,0009.72,0005.06,0004.28
2023-06-06 05:34:00,SystemResetWarning,0833.6,5.01,000.00,029.8,028.1,000.0,038.3,031.2,28.7,0000.0,0009.74,0005.04,0004.27
2023-06-06 05:35:00,SystemResetWarning,0833.6,5.00,000.00,029.8,028.1,000.0,038.3,031.2,28.6,0000.0,0009.62,0005.02,0004.27
2023-06-06 05:36:00,SystemResetWarning,0833.5,4.99,000.00,029.8,028.1,000.0,038.3,031.2,28.5,0000.0,0009.51,0004.99,0004.25
2023-06-06 05:37:00,SystemResetWarning,0833.5,5.00,000.00,029.8,028.1,000.0,038.3,031.2,28.5,0000.0,0009.46,0004.97,0004.23
2023-06-06 05:38:00,SystemResetWarning,0833.5,5.00,000.00,029.8,028.1,000.0,038.3,031.2,28.6,0000.0,0009.45,0004.97,0004.21
2023-06-06 05:39:00,SystemResetWarning,0833.5,5.01,000.00,029.8,028.1,000.0,038.3,031.2,28.4,0000.1,0009.32,0004.92,0004.21
2023-06-06 05:40:00,SystemResetWarning,0833.4,4.99,000.00,029.8,028.1,000.0,038.3,031.2,28.3,0001.1,0008.78,0004.91,0004.20
2023-06-06 05:41:00,SystemResetWarning,0833.4,5.00,000.00,029.8,028.1,000.0,038.3,031.2,28.2,0001.9,0008.69,0004.87,0004.20
2023-06-06 05:42:00,SystemResetWarning,0833.4,5.00,000.00,029.8,028.1,000.0,038.3,031.2,28.1,0001.3,0008.61,0004.84,0004.19
2023-06-06 05:43:00,SystemResetWarning,0833.5,5.01,000.00,029.8,028.2,000.0,038.3,031.2,28.0,0000.0,0008.52,0004.80,0004.19
2023-06-06 05:44:00,SystemResetWarning,0833.4,5.00,000.00,029.8,028.2,000.0,038.3,031.2,28.0,0000.0,0008.26,0004.82,0004.18
2023-06-06 05:45:00,SystemResetWarning,0833.5,5.00,000.00,029.8,028.2,000.0,038.3,031.2,27.8,0000.0,0007.89,0004.77,0004.17
2023-06-06 05:46:00,SystemResetWarning,0833.5,5.00,000.00,029.8,028.2,000.0,038.3,031.2,27.7,0000.0,0007.85,0004.76,0004.16
2023-06-06 05:47:00,SystemResetWarning,0833.5,4.99,000.00,029.8,028.2,000.0,038.3,031.2,27.7,0000.0,0007.74,0004.70,0004.14
2023-06-06 05:48:00,SystemResetWarning,0833.5,5.00,000.00,029.8,028.2,000.0,038.3,031.2,27.9,0000.0,0007.71,0004.67,0004.13
2023-06-06 05:49:00,SystemResetWarning,0833.5,5.01,000.00,029.8,028.2,000.0,038.4,031.2,27.8,0000.0,0007.71,0004.66,0004.12
2023-06-06 05:50:00,SystemResetWarning,0833.4,5.00,000.00,029.8,028.2,000.0,038.4,031.3,27.8,0000.0,0007.72,0004.65,0004.11
2023-06-06 05:51:00,SystemResetWarning,0833.4,5.00,000.00,029.8,028.2,000.0,038.4,031.2,27.8,0000.0,0007.84,0004.66,0004.10
2023-06-06 05:52:00,SystemResetWarning,0833.5,5.01,000.00,029.8,028.2,000.0,038.4,031.2,27.8,0000.0,0008.25,0004.67,0004.10
2023-06-06 05:53:00,SystemResetWarning,0833.5,5.00,000.00,029.8,028.2,000.0,038.4,031.2,27.8,0000.0,0008.37,0004.68,0004.10
2023-06-06 05:54:00,SystemResetWarning,0833.4,4.99,000.00,029.8,028.2,000.0,038.4,031.2,28.0,0000.0,0008.40,0004.67,0004.10
2023-06-06 05:55:00,SystemResetWarning,0833.4,4.99,000.00,029.8,028.2,000.0,038.4,031.2,28.1,0000.0,0008.49,0004.65,0004.11
2023-06-06 05:56:00,SystemResetWarning,0833.4,5.00,000.00,029.8,028.2,000.0,038.4,031.2,28.2,0000.0,0008.58,0004.69,0004.12
2023-06-06 05:57:00,SystemResetWarning,0833.4,5.00,000.00,029.8,028.2,000.0,038.4,031.2,28.3,0000.0,0008.67,0004.74,0004.14
2023-06-06 05:58:00,SystemResetWarning,0833.4,5.00,000.00,029.8,028.1,000.0,038.4,031.2,28.4,0000.0,0008.79,0004.80,0004.17
2023-06-06 05:59:00,SystemResetWarning,0833.4,5.00,000.00,029.8,028.1,000.0,038.4,031.2,28.5,0000.0,0008.88,0004.84,0004.19
